sat.trackr.live / text

‹ back to catalog

STARLINK-3885

NORAD 52463 · 2022-049N

PAYLOAD ACTIVE UNKNOWN

§ Identity

Operator
Country
US
Launch date
2022-05-06
Launch site
AFETR
Launch vehicle
Mass (kg)
RCS (m²)

Purposes: comms

External: N2YO · Heavens-Above · Gunter

§ Orbital elements

Epoch: 2026-05-25T01:03:56.622240Z

Period
95.44 min
Inclination
53.2141°
Eccentricity
0.0001194
Mean motion
15.08841830 rev/d
Perigee alt
538.9 km
Apogee alt
540.6 km
Semi-major
6,917.9 km
B*
8.4661e-5
RAAN
66.3512°
Arg perigee
90.7002°
Mean anomaly
269.4127°
Rev number
22,391

§ Raw data

STARLINK-38851 52463U 22049N   26145.04440535  .00001060  00000+0  84661-4 0  99952 52463  53.2141  66.3512 0001194  90.7002 269.4127 15.08841830223910

JSON: /api/v1/satellites/52463 · /tle

For live sub-satellite position, see the globe view (requires WebGL).

§ Visibility from observer

Set your observer location to see the next 7 days of passes ≥ 10°. The values pass through the URL so the page stays shareable.

No JS? Fill the form by hand. The geolocation button needs JavaScript.